Simultaneous Nadir Overpasses (SNOs) Predictions

Prediction of SNOs between GOES-16 and NOAA-19 Satellite Orbit:

Table of predicted SNOs for the next 14.0 days since TLE Epoch: 10/10/2025
Index Date Time (GOES-16) GOES-16 Lat,Lon NOAA-19 Lat,Lon Distance(km) Time Diff (sec)
1 10/13/2025 05:05:49 -0.06,-104.66 -0.50,-106.52 212.69 80
2 10/14/2025 04:50:28 -0.06,-104.65 0.22,-103.44 137.77 80
3 10/15/2025 04:37:48 -0.06,-104.64 0.94,-100.37 488.35 80
4 10/16/2025 17:08:53 0.06,-104.69 0.78,-107.84 359.32 80
5 10/17/2025 16:56:13 0.07,-104.69 0.07,-104.77 8.47 80
6 10/18/2025 16:46:12 0.07,-104.69 -0.63,-101.69 342.55 80
7 10/21/2025 05:04:44 -0.07,-104.64 -0.42,-106.11 168.51 80
8 10/22/2025 04:49:24 -0.07,-104.64 0.31,-103.04 182.48 80
9 10/24/2025 17:07:50 0.07,-104.68 0.68,-107.45 315.64 80
